TimeEST,TemperatureF,Dew PointF,Humidity,Sea Level PressureIn,VisibilityMPH,Wind Direction,Wind SpeedMPH,Gust SpeedMPH,PrecipitationIn,Events,Conditions,WindDirDegrees,DateUTC
12:51 AM,26.1,19.9,78,30.12,10.0,Calm,Calm,-,N/A,,Overcast,0,2013-12-07 05:51:00
1:51 AM,25.0,19.0,78,30.13,10.0,Variable,4.6,-,N/A,,Overcast,0,2013-12-07 06:51:00
2:51 AM,24.1,19.0,81,30.15,10.0,West,6.9,-,N/A,,Mostly Cloudy,280,2013-12-07 07:51:00
3:33 AM,24.8,17.6,74,30.09,10.0,Variable,3.5,-,N/A,,Mostly Cloudy,0,2013-12-07 08:33:00
3:51 AM,24.1,18.0,77,30.17,10.0,Calm,Calm,-,N/A,,Overcast,0,2013-12-07 08:51:00
4:51 AM,21.9,16.0,78,30.18,10.0,NNW,4.6,-,N/A,,Overcast,330,2013-12-07 09:51:00
5:51 AM,21.0,14.0,74,30.22,10.0,NW,4.6,-,N/A,,Overcast,320,2013-12-07 10:51:00
6:19 AM,19.4,12.2,74,30.15,10.0,NW,8.1,-,N/A,,Overcast,320,2013-12-07 11:19:00
6:51 AM,19.9,12.0,71,30.24,10.0,Variable,4.6,-,N/A,,Overcast,0,2013-12-07 11:51:00
7:51 AM,19.9,10.9,68,30.26,10.0,West,3.5,-,N/A,,Overcast,280,2013-12-07 12:51:00
8:51 AM,19.9,12.0,71,30.28,7.0,Variable,5.8,-,0.00,,Overcast,0,2013-12-07 13:51:00
9:51 AM,19.9,12.0,71,30.30,10.0,Variable,4.6,-,N/A,,Overcast,0,2013-12-07 14:51:00
10:51 AM,21.9,12.0,66,30.29,10.0,Variable,6.9,-,N/A,,Overcast,0,2013-12-07 15:51:00
11:51 AM,23.0,12.9,65,30.28,10.0,Variable,5.8,-,N/A,,Overcast,0,2013-12-07 16:51:00
12:51 PM,23.0,15.1,72,30.28,1.8,Variable,5.8,-,0.00,Snow,Light Snow,0,2013-12-07 17:51:00
12:57 PM,21.2,15.8,80,30.20,1.0,Variable,4.6,-,0.00,Snow,Light Snow,0,2013-12-07 17:57:00
1:04 PM,21.2,17.6,86,30.21,0.8,Variable,3.5,-,0.00,Snow,Light Snow,0,2013-12-07 18:04:00
1:06 PM,21.2,17.6,86,30.21,1.0,Variable,5.8,-,0.00,Snow,Light Snow,0,2013-12-07 18:06:00
1:09 PM,21.2,17.6,86,30.21,2.5,WSW,5.8,-,0.00,Snow,Light Snow,250,2013-12-07 18:09:00
1:16 PM,23.0,15.8,74,30.21,5.0,Variable,5.8,-,0.00,Snow,Light Snow,0,2013-12-07 18:16:00
1:24 PM,23.0,15.8,74,30.20,4.0,Variable,5.8,-,0.00,Snow,Light Snow,0,2013-12-07 18:24:00
1:51 PM,23.0,15.1,72,30.28,3.0,Variable,5.8,-,0.00,Snow,Light Snow,0,2013-12-07 18:51:00
2:05 PM,21.2,15.8,80,30.20,2.0,West,4.6,-,0.00,Snow,Light Snow,260,2013-12-07 19:05:00
2:11 PM,23.0,15.8,74,30.21,3.0,Variable,3.5,-,0.00,Snow,Light Snow,0,2013-12-07 19:11:00
2:25 PM,23.0,15.8,74,30.21,6.0,WNW,5.8,-,0.00,Snow,Light Snow,290,2013-12-07 19:25:00
2:38 PM,21.2,17.6,86,30.21,2.0,Variable,3.5,-,0.00,Snow,Light Snow,0,2013-12-07 19:38:00
2:40 PM,21.2,17.6,86,30.21,1.8,Calm,Calm,-,0.00,Snow,Light Snow,0,2013-12-07 19:40:00
2:48 PM,23.0,17.6,80,30.21,3.0,NW,3.5,-,0.00,Snow,Light Snow,320,2013-12-07 19:48:00
2:51 PM,21.9,17.1,82,30.30,2.5,Variable,6.9,-,0.00,Snow,Light Snow,0,2013-12-07 19:51:00
3:00 PM,21.2,15.8,80,30.22,2.0,West,10.4,16.1,0.00,Snow,Light Snow,260,2013-12-07 20:00:00
3:09 PM,21.2,15.8,80,30.22,6.0,West,8.1,-,0.00,Snow,Light Snow,270,2013-12-07 20:09:00
3:51 PM,21.9,14.0,72,30.31,-9999.0,North,-9999.0,-,0.00,,Unknown,0,2013-12-07 20:51:00
4:32 PM,21.2,15.8,80,30.25,2.5,WNW,5.8,-,0.00,Snow,Light Snow,290,2013-12-07 21:32:00
4:35 PM,21.2,15.8,80,30.25,0.8,WNW,9.2,18.4,0.00,Snow,Light Snow,290,2013-12-07 21:35:00
4:44 PM,21.2,17.6,86,30.25,1.0,Calm,Calm,-,0.00,Snow,Light Snow,0,2013-12-07 21:44:00
4:51 PM,21.0,18.0,88,30.33,-9999.0,West,6.9,-,0.00,,Unknown,270,2013-12-07 21:51:00
5:51 PM,21.0,14.0,74,30.35,10.0,Variable,6.9,-,N/A,,Overcast,0,2013-12-07 22:51:00
6:46 PM,21.2,15.8,80,30.29,10.0,Calm,Calm,-,N/A,,Overcast,0,2013-12-07 23:46:00
6:51 PM,21.0,15.1,78,30.38,6.0,Calm,Calm,-,0.00,Snow,Light Snow,0,2013-12-07 23:51:00
7:51 PM,19.9,15.1,81,30.40,7.0,WSW,6.9,-,0.00,Snow,Light Snow,250,2013-12-08 00:51:00
8:12 PM,19.4,15.8,86,30.31,10.0,WSW,6.9,-,0.00,,Partly Cloudy,240,2013-12-08 01:12:00
8:51 PM,19.0,14.0,81,30.41,10.0,WSW,5.8,-,0.00,,Mostly Cloudy,240,2013-12-08 01:51:00
9:51 PM,19.0,12.9,77,30.43,10.0,WSW,5.8,-,N/A,,Overcast,240,2013-12-08 02:51:00
10:36 PM,19.4,12.2,74,30.35,7.0,Variable,4.6,-,0.00,Snow,Light Snow,0,2013-12-08 03:36:00
10:51 PM,19.0,10.0,68,30.43,9.0,Calm,Calm,-,0.00,,Overcast,0,2013-12-08 03:51:00
11:51 PM,18.0,10.0,71,30.45,10.0,Calm,Calm,-,0.00,,Overcast,0,2013-12-08 04:51:00